Weather History for CWWE - November, 2012

Change the Weather History Date:

Friday, November 16, 2012

  Actual Average Record
Temperature  
Mean Temperature 43 °F -  
Max Temperature 47 °F - - ()
Min Temperature 39 °F - - ()
Degree Days  
Heating Degree Days 22    
Moisture  
Dew Point 39 °F    
Average Humidity 86    
Maximum Humidity 98    
Minimum Humidity 70    
Precipitation  
Precipitation 0.00 in - - ()
Sea Level Pressure  
Sea Level Pressure 30.22 in    
Wind  
Wind Speed 5 mph ()    
Max Wind Speed 7 mph    
Max Gust Speed -    
T = Trace of Precipitation, MM = Missing Value Source: Averaged Metar Reports

Daily Weather History Graph

Daily Weather History Graph

Search for Another Location

Airport or City:

Trip Planner

Search our weather history database for the weather conditions in past years. The results will help you decide how hot, cold, wet, or windy it might be!

Date:

Astronomy

Nov. 16, 2012 Rise Set
Actual Time 7:15 AM AST 4:51 PM AST
Civil Twilight 6:44 AM AST 5:22 PM AST
Nautical Twilight 6:09 AM AST 5:57 PM AST
Astronomical Twilight 5:35 AM AST 6:31 PM AST
Moon 10:08 AM AST (11/16) 7:44 PM AST (11/16)
Length of Visible Light 10h 38m
Length of Day
9h 35m
Waxing Crescent, 11% of the Moon is Illuminated
Nov 16
Waxing Crescent
Nov 20
First Quarter
Nov 28
Full
Dec 6
Last Quarter
Dec 13
New

Hourly Weather History & Observations

Time (AST) Temp. Windchill Dew Point Humidity Pressure Visibility Wind Dir Wind Speed Gust Speed Precip Events Conditions
12:00 AM 41.9 °F 37.5 °F 38.8 °F 89% 30.21 in - North 6.9 mph - N/A   Unknown
1:00 AM 41.5 °F 37.8 °F 38.5 °F 89% 30.21 in - North 5.8 mph - N/A   Unknown
2:00 AM 40 °F - 39 °F 94% 30.21 in - NNW 5.8 mph - -  
2:00 AM 40.1 °F 36.1 °F 38.8 °F 95% 30.21 in - NNW 5.8 mph - N/A   Unknown
3:00 AM 39.7 °F 34.9 °F 39.0 °F 97% 30.19 in - North 6.9 mph - N/A   Unknown
4:00 AM 39.9 °F 35.8 °F 39.2 °F 97% 30.18 in - North 5.8 mph - N/A   Unknown
5:00 AM 40 °F - 39 °F 95% 30.19 in - NNW 4.6 mph - -  
5:00 AM 39.9 °F 36.7 °F 39.0 °F 97% 30.19 in - NNW 4.6 mph - N/A   Unknown
6:00 AM 39.7 °F 36.5 °F 38.8 °F 97% 30.19 in - NNW 4.6 mph - N/A   Unknown
7:00 AM 40.3 °F 37.1 °F 39.7 °F 98% 30.19 in - North 4.6 mph - N/A   Unknown
8:00 AM 41 °F - 40 °F 96% 30.21 in - NNW 4.6 mph - -  
8:00 AM 40.8 °F 37.8 °F 40.3 °F 98% 30.21 in - NNW 4.6 mph - N/A   Unknown
9:00 AM 41.9 °F 38.2 °F 40.8 °F 96% 30.22 in - NNW 5.8 mph - N/A   Unknown
10:00 AM 44.1 °F 40.8 °F 41.9 °F 92% 30.22 in - NNW 5.8 mph - N/A   Unknown
11:00 AM 46 °F - 41 °F 77% 30.22 in - North 5.8 mph - -  
11:00 AM 45.7 °F 42.7 °F 41.2 °F 84% 30.22 in - North 5.8 mph - N/A   Unknown
12:00 PM 46.8 °F - 41.4 °F 81% 30.20 in - North 4.6 mph - N/A   Unknown
1:00 PM 46.4 °F 44.3 °F 41.0 °F 81% 30.20 in - NNW 4.6 mph - N/A   Unknown
2:00 PM 46 °F - 41 °F 75% 30.20 in - NNW 5.8 mph - -  
2:00 PM 46.0 °F 43.1 °F 40.6 °F 81% 30.20 in - NNW 5.8 mph - N/A   Unknown
3:00 PM 45.1 °F 42.0 °F 39.7 °F 81% 30.19 in - NNW 5.8 mph - N/A   Unknown
4:00 PM 44.2 °F 41.8 °F 39.4 °F 83% 30.21 in - North 4.6 mph - N/A   Unknown
5:00 PM 44 °F - 39 °F 76% 30.23 in - NNW 4.6 mph - -  
5:00 PM 43.7 °F 41.1 °F 38.8 °F 83% 30.23 in - NNW 4.6 mph - N/A   Unknown
6:00 PM 42.8 °F 40.1 °F 37.4 °F 81% 30.24 in - NW 4.6 mph - N/A   Unknown
7:00 PM 42.8 °F 40.1 °F 36.3 °F 78% 30.25 in - North 4.6 mph - N/A   Unknown
8:00 PM 42 °F - 36 °F 70% 30.27 in - NNW 4.6 mph - -  
8:00 PM 42.4 °F 39.6 °F 35.6 °F 77% 30.27 in - NNW 4.6 mph - N/A   Unknown
9:00 PM 41.7 °F 38.0 °F 35.1 °F 77% 30.27 in - NNW 5.8 mph - N/A   Unknown
10:00 PM 40.8 °F 36.2 °F 34.0 °F 77% 30.29 in - North 6.9 mph - N/A   Unknown
11:00 PM 40 °F - 34 °F 72% 30.30 in - NNW 6.9 mph - -  
11:00 PM 39.9 °F 35.1 °F 34.0 °F 79% 30.30 in - NNW 6.9 mph - N/A   Unknown